FALCON HEAVY R/B (44345 NORAD) Tracking and Keplerian Element Data

This shows tracking and keplerian element data for the satellite.

Feedback or suggestion? Click here.




ElementValue
Catalog44345
NameFALCON HEAVY R/B
Epoch Orbit96
Epoch Day196.87352827
Epoch Year2019
RAAN195.4987
Inclination42.2169
Eccentricity0.2152488
Argument of Perigee11.9094
Mean Anonmoly352.4879
Mean Motion4.69269378
Decay Rate2E-08
L11 44345U 19036G 19196.87352827 .00000002 00000-0 00000-0 0 9999
L22 44345 42.2169 195.4987 2152488 11.9094 352.4879 4.69269378 960

Live tracking and technical data element details for FALCON HEAVY R/B (NORAD 44345). FALCON HEAVY R/B can be tracked NOW for your location showing map with azimuth and elevation plus other details from your city location.

Track the satellite on the map from your city or location and see movement details for azimuth, elevation, latitude, longitude, range, height, and movement on the map or in text.







IsCatalogInMostPopularTable: catalog: 44345, numindb: 8
Update: records affected: 1



GetName: 44345 FALCON HEAVY R/B

Hit Count: updated at: Fri, 19 Jul 2019 08:40:53 GMT